| time (UTC) | temp F | wind direction | speed MPH | gust MPH | rain 1hr in | rain 24hr in | rain mn in | humidity % | barometer mb |
| 20260503221003 | 85 | 55 | 0.0 | 1.0 | 0.00 | 0.00 | 0.00 | 67 | |
| 20260503220003 | 85 | 35 | 0.0 | 2.0 | 0.00 | 0.00 | 0.00 | 67 | |
| 20260503215003 | 84 | 20 | 0.0 | 2.0 | 0.00 | 0.00 | 0.00 | 67 | |
| 20260503214003 | 212 | 55 | 1.0 | 3.0 | 0.00 | 0.00 | 0.00 | 67 | |
| 20260503213003 | 84 | 115 | 0.0 | 3.0 | 0.00 | 0.00 | 0.00 | 67 | |
| 20260503212003 | 83 | 35 | 0.0 | 2.0 | 0.00 | 0.00 | 0.00 | 66 | |
| 20260503211002 | 81 | 70 | 0.0 | 3.0 | 0.00 | 0.00 | 0.00 | 65 | |
| 20260503210003 | 81 | 360 | 0.0 | 4.0 | 0.00 | 0.00 | 0.00 | 65 | |
| 20260503205003 | 81 | 30 | 1.0 | 3.0 | 0.00 | 0.00 | 0.00 | 65 | |
| 20260503204003 | 81 | 60 | 0.0 | 4.0 | 0.00 | 0.00 | 0.00 | 65 | |
| 20260503203003 | 79 | 25 | 2.0 | 3.0 | 0.00 | 0.00 | 0.00 | 64 | |
| 20260503202004 | 79 | 20 | 1.0 | 3.0 | 0.00 | 0.00 | 0.00 | 64 | |
| 20260503201002 | 80 | 30 | 0.0 | 3.0 | 0.00 | 0.00 | 0.00 | 64 | |
| 20260503200003 | 79 | 80 | 0.0 | 3.0 | 0.00 | 0.00 | 0.00 | 64 | |
| 20260503195003 | 79 | 15 | 0.0 | 2.0 | 0.00 | 0.00 | 0.00 | 64 | |
| 20260503194003 | 77 | 25 | 1.0 | 3.0 | 0.00 | 0.00 | 0.00 | 63 | |
| 20260503193004 | 77 | 85 | 0.0 | 3.0 | 0.00 | 0.00 | 0.00 | 63 | |
| 20260503192003 | 77 | 50 | 0.0 | 2.0 | 0.00 | 0.00 | 0.00 | 63 | |
| 20260503191003 | 76 | 35 | 2.0 | 4.0 | 0.00 | 0.00 | 0.00 | 63 | |
| 20260503190004 | 76 | 55 | 0.0 | 4.0 | 0.00 | 0.00 | 0.00 | 63 | |
| 20260503185002 | 75 | 25 | 0.0 | 4.0 | 0.00 | 0.00 | 0.00 | 62 | |
| 20260503184003 | 75 | 70 | 0.0 | 5.0 | 0.00 | 0.00 | 0.00 | 62 | |
| 20260503183003 | 74 | 50 | 0.0 | 4.0 | 0.00 | 0.00 | 0.00 | 62 | |
| 20260503182003 | 74 | 0 | 0.0 | 3.0 | 0.00 | 0.00 | 0.00 | 62 | |
| 20260503181003 | 72 | 40 | 0.0 | 4.0 | 0.00 | 0.00 | 0.00 | 61 | |
| 20260503180004 | 71 | 40 | 1.0 | 4.0 | 0.00 | 0.00 | 0.00 | 60 | |
| 20260503175003 | 70 | 50 | 0.0 | 4.0 | 0.00 | 0.00 | 0.00 | 60 | |
| 20260503174002 | 70 | 55 | 0.0 | 4.0 | 0.00 | 0.00 | 0.00 | 60 | |
| 20260503173003 | 69 | 360 | 0.0 | 2.0 | 0.00 | 0.00 | 0.00 | 59 | |
| 20260503172003 | 69 | 50 | 0.0 | 2.0 | 0.00 | 0.00 | 0.00 | 59 | |
| 20260503171003 | 69 | 30 | 0.0 | 4.0 | 0.00 | 0.00 | 0.00 | 59 | |
| 20260503151003 | 61 | 45 | 0.0 | 4.0 | 0.00 | 0.00 | 0.00 | 55 | |
| 20260503131003 | 59 | 50 | 0.0 | 1.0 | 0.00 | 0.00 | 0.00 | 54 | |
| 20260503081002 | 58 | 45 | 0.0 | 3.0 | 0.00 | 0.00 | 0.00 | 54 | |
| 20260503072003 | 56 | 50 | 0.0 | 0.0 | 0.00 | 0.00 | 0.00 | 53 | |
| 20260503071002 | 56 | 50 | 0.0 | 0.0 | 0.00 | 0.00 | 0.00 | 53 | |
| 20260503055003 | 57 | 360 | 0.0 | 1.0 | 0.00 | 0.00 | 0.00 | 54 | |
| 20260503054003 | 57 | 0 | 0.0 | 1.0 | 0.00 | 0.00 | 0.00 | 53 | |
| 20260503053002 | 57 | 0 | 0.0 | 0.0 | 0.00 | 0.00 | 0.00 | 53 | |
| 20260503052003 | 57 | 360 | 0.0 | 0.0 | 0.00 | 0.00 | 0.00 | 53 | |
| 20260503051003 | 57 | 0 | 0.0 | 0.0 | 0.00 | 0.00 | 0.00 | 53 | |
| 20260503050003 | 57 | 0 | 0.0 | 1.0 | 0.00 | 0.00 | 0.00 | 53 | |
| 20260503045003 | 58 | 0 | 0.0 | 1.0 | 0.00 | 0.00 | 0.00 | 54 | |
| 20260503044003 | 58 | 360 | 0.0 | 1.0 | 0.00 | 0.00 | 0.00 | 54 | |
| 20260503043004 | 58 | 360 | 0.0 | 0.0 | 0.00 | 0.00 | 0.00 | 54 | |
| 20260503042002 | 59 | 360 | 0.0 | 1.0 | 0.00 | 0.00 | 0.00 | 54 | |
| 20260503041002 | 58 | 360 | 0.0 | 1.0 | 0.00 | 0.00 | 0.00 | 54 | |
| 20260503040003 | 59 | 360 | 0.0 | 1.0 | 0.00 | 0.00 | 0.00 | 54 | |
| 20260503035003 | 59 | 360 | 0.0 | 1.0 | 0.00 | 0.00 | 0.00 | 54 | |
| 20260503034003 | 60 | 360 | 0.0 | 1.0 | 0.00 | 0.00 | 0.00 | 55 | |
| 20260503033003 | 60 | 360 | 1.0 | 2.0 | 0.00 | 0.00 | 0.00 | 55 | |
| 20260503032003 | 61 | 360 | 1.0 | 2.0 | 0.00 | 0.00 | 0.00 | 55 | |
| 20260503031002 | 62 | 360 | 1.0 | 1.0 | 0.00 | 0.00 | 0.00 | 56 | |
| 20260503030003 | 63 | 360 | 1.0 | 1.0 | 0.00 | 0.00 | 0.00 | 56 | |
| 20260503025003 | 64 | 360 | 0.0 | 3.0 | 0.00 | 0.00 | 0.00 | 57 | |
| 20260503024003 | 65 | 360 | 1.0 | 3.0 | 0.00 | 0.00 | 0.00 | 57 | |
| 20260503023003 | 65 | 360 | 1.0 | 3.0 | 0.00 | 0.00 | 0.00 | 57 | |
| 20260503022004 | 66 | 360 | 1.0 | 2.0 | 0.00 | 0.00 | 0.00 | 58 | |
| 20260503021003 | 66 | 360 | 1.0 | 3.0 | 0.00 | 0.00 | 0.00 | 58 | |
| 20260503020004 | 66 | 360 | 0.0 | 2.0 | 0.00 | 0.00 | 0.00 | 58 | |
| 20260503015003 | 66 | 360 | 0.0 | 2.0 | 0.00 | 0.00 | 0.00 | 58 | |
| 20260503014003 | 66 | 360 | 1.0 | 3.0 | 0.00 | 0.00 | 0.00 | 58 | |
| 20260503013003 | 67 | 360 | 1.0 | 3.0 | 0.00 | 0.00 | 0.00 | 58 | |
| 20260503012003 | 67 | 360 | 0.0 | 2.0 | 0.00 | 0.00 | 0.00 | 58 | |
| 20260503011003 | 68 | 360 | 1.0 | 2.0 | 0.00 | 0.00 | 0.00 | 59 | |
| 20260503010004 | 68 | 360 | 1.0 | 4.0 | 0.00 | 0.00 | 0.00 | 59 | |
| 20260503005002 | 69 | 360 | 1.0 | 3.0 | 0.00 | 0.00 | 0.00 | 59 | |
| 20260503004003 | 68 | 360 | 1.0 | 4.0 | 0.00 | 0.00 | 0.00 | 59 | |
| 20260503003003 | 69 | 360 | 1.0 | 2.0 | 0.00 | 0.00 | 0.00 | 59 | |
| 20260503002003 | 69 | 360 | 1.0 | 3.0 | 0.00 | 0.00 | 0.00 | 59 | |
| 20260503001003 | 69 | 360 | 1.0 | 3.0 | 0.00 | 0.00 | 0.00 | 59 | |
| 20260503000002 | 70 | 360 | 2.0 | 5.0 | 0.00 | 0.00 | 0.00 | 60 | |
| 20260502235002 | 66 | 360 | 2.0 | 5.0 | 0.00 | 0.00 | 0.00 | 58 | |
| 20260502234003 | 65 | 30 | 2.0 | 2.0 | 0.00 | 0.00 | 0.00 | 57 | |
| 20260502233003 | 65 | 50 | 0.0 | 3.0 | 0.00 | 0.00 | 0.00 | 57 | |
| 20260502232003 | 65 | 40 | 0.0 | 3.0 | 0.00 | 0.00 | 0.00 | 57 | |
| 20260502231003 | 67 | 60 | 0.0 | 2.0 | 0.00 | 0.00 | 0.00 | 58 | |
| 20260502230004 | 66 | 60 | 0.0 | 2.0 | 0.00 | 0.00 | 0.00 | 58 | |
| 20260502225002 | 66 | 35 | 1.0 | 3.0 | 0.00 | 0.00 | 0.00 | 58 | |
| 20260502224003 | 66 | 40 | 0.0 | 1.0 | 0.00 | 0.00 | 0.00 | 58 | |
| 20260502223003 | 64 | 45 | 0.0 | 2.0 | 0.00 | 0.00 | 0.00 | 57 | |
| 20260502222003 | 62 | 0 | 0.0 | 4.0 | 0.00 | 0.00 | 0.00 | 56 |